Terminal Aerodrome Forecast
Issued by NWS

Home | Current Version | Previous Version | Text Only | Print | Product List | Glossary On
Versions: 1 2 3 4 5 6 7 8 9 10 11 12 13 14 15 16 17 18 19 20 21 22 23 24 25 26 27 28 29 30 31 32 33 34 35
000
FTUS42 KRAH 310533
TAFRWI
TAF
KRWI 310533Z 3106/0106 30006KT P6SM FEW250
     FM311430 32006G15KT P6SM FEW250
     FM312100 27006KT P6SM SCT250
     FM010000 18001KT P6SM SCT150=

USA.gov is the U.S. government's official web portal to all federal, state and local government web resources and services.